{"data":{"norad_id":58517,"epoch":"2026-09-19T20:56:29.736096Z","epoch_age_seconds":201023,"freshness":"STALE","line1":"1 58517U 23191K   26262.87256639  .00000129  00000+0  14206-4 0  9994","line2":"2 58517  43.0013  86.4077 0001184 274.9043  85.1674 15.27579148155173","mean_motion":15.27579148,"eccentricity":0.0001184,"inclination_deg":43.0013,"raan_deg":86.4077,"arg_perigee_deg":274.9043,"mean_anomaly_deg":85.1674,"bstar":1.4206e-5,"rev_number":15517,"period_min":94.266801290482,"perigee_km":482.23928249951,"apogee_km":483.86401197118,"semimajor_km":6861.1886472353,"source":"CELESTRAK","updated_at":"2026-09-21T09:00:33.908503Z"}}